Location: Newark
(9.4667°S, 159.8167°E)
Time: 16:20:07
(UTC+00:00)

Courier 1B Rocket - Pass Details

Date: 28 November 2019
Orbit: 920 x 1202 km, 28.2° (Epoch: 14 December)

Event Time Altitude Azimuth Distance (km) Brightness Sun altitude
Rises 13:40:31 0° 246° (WSW) 4,089 - -58.2°
Reaches altitude 10° 13:44:31 10° 228° (SW) 3,103 - -58.0°
Maximum altitude 13:49:30 18° 187° (S) 2,495 - -57.6°
Drops below altitude 10° 13:54:22 10° 146° (SE) 2,998 - -57.2°
Exits shadow 13:56:11 - 136° (SE) 3,400 8.2 -57.1°
Sets 13:58:09 0° 127° (SE) 3,902 8.6 -56.9°
